CW4171 Ibiza ES current weather conditions

sailwx.info

Wind from 250 at 2 knots

Air temperature 15.6° C
Dewpoint 10.9° C

Last reported at 2020-Jan-17 17:59 UTC.
Time now 2020-Jan-17 19:14 UTC

Location: N 38°59' E 001°18'.
View on Google Maps.

See reports from other nearby stations

  
Tides and Currents Weather Stations Pressure Air Temp Water Temp Dewpoint Dewpoint Depression Visibility Wind Speed Wind Dir Waves Ship Positions
date/time (UTC)wind fromknots sea level pressurealtimeterstation pressurevisibilityair tempwater tempwave heightnotes
2020-Jan-17 17:59 250 2 15.6
2020-Jan-17 17:49 246 15.6
2020-Jan-17 17:39 257 15.6
2020-Jan-17 17:29 267 15.6
2020-Jan-17 17:19 268 0 15.6
2020-Jan-17 17:09 274 0 16.1
2020-Jan-17 16:59 271 3 16.1
2020-Jan-17 16:49 263 1 16.1
2020-Jan-17 16:39 249 16.1
2020-Jan-17 16:29 302 0 16.1
2020-Jan-17 16:19 288 0 16.1
2020-Jan-17 16:09 259 2 16.1
2020-Jan-17 15:59 268 2 16.1
2020-Jan-17 15:49 250 6 16.1
2020-Jan-17 15:39 258 6 16.1
2020-Jan-17 15:29 278 3 16.1
2020-Jan-17 15:19 272 2 16.1
2020-Jan-17 15:09 268 2 16.7
2020-Jan-17 14:59 273 3 16.7
2020-Jan-17 14:49 254 3 16.7
2020-Jan-17 14:39 260 3 16.1
2020-Jan-17 14:29 292 2 16.7
2020-Jan-17 14:19 281 4 16.7
2020-Jan-17 14:09 265 3 16.7
2020-Jan-17 13:59 286 2 16.1
2020-Jan-17 13:49 265 3 16.1
2020-Jan-17 13:39 272 3 16.1
2020-Jan-17 13:29 279 1 16.1
2020-Jan-17 13:19 265 4 16.1
2020-Jan-17 13:09 286 6 16.1
2020-Jan-17 12:59 268 9 16.1
2020-Jan-17 12:49 274 10 16.1
2020-Jan-17 12:39 250 11 16.1
2020-Jan-17 12:29 273 11 16.1
2020-Jan-17 12:19 255 12 16.1
2020-Jan-17 12:09 279 12 15.6
2020-Jan-17 11:59 240 12 15.6
2020-Jan-17 11:49 246 12 15.6
2020-Jan-17 11:39 285 11 15.6
2020-Jan-17 11:29 256 13 15.6
2020-Jan-17 11:19 254 12 16.1
2020-Jan-17 11:09 259 11 16.1
2020-Jan-17 10:59 249 10 16.1
2020-Jan-17 10:49 248 11 16.1
2020-Jan-17 10:39 259 11 16.1
2020-Jan-17 10:29 259 12 16.1
2020-Jan-17 10:19 263 11 16.1
2020-Jan-17 10:09 245 9 15.6
2020-Jan-17 09:59 242 4 15.6
2020-Jan-17 09:49 287 15.6
2020-Jan-17 09:39 253 0 15.6
2020-Jan-17 09:29 273 15.6
2020-Jan-17 09:19 255 0 15.6
2020-Jan-17 09:09 261 15.0
2020-Jan-17 08:59 215 14.4
2020-Jan-17 08:49 255 14.4
2020-Jan-17 08:39 250 13.9
2020-Jan-17 08:29 244 13.9
2020-Jan-17 08:19 298 13.9
2020-Jan-17 08:09 238 13.3
2020-Jan-17 07:59 234 13.3
2020-Jan-17 07:49 257 13.3
2020-Jan-17 07:39 240 12.8
2020-Jan-17 07:29 238 12.8
2020-Jan-17 07:19 239 12.8
2020-Jan-17 07:09 238 12.2
2020-Jan-17 06:59 238 12.2
2020-Jan-17 06:49 238 11.7
2020-Jan-17 06:39 237 11.1
2020-Jan-17 06:29 238 12.2
2020-Jan-17 06:19 237 12.2
2020-Jan-17 06:09 237 12.2
2020-Jan-17 05:59 238 12.2
2020-Jan-17 05:49 238 11.7
2020-Jan-17 05:39 238 11.7
2020-Jan-17 05:29 238 11.7
2020-Jan-17 05:19 238 12.8
2020-Jan-17 05:09 238 12.8
2020-Jan-17 04:59 238 12.8
2020-Jan-17 04:49 237 12.8
2020-Jan-17 04:39 238 12.2
2020-Jan-17 04:29 238 12.8
2020-Jan-17 04:19 237 12.8
2020-Jan-17 04:09 238 12.8
2020-Jan-17 03:59 237 12.2
2020-Jan-17 03:49 236 12.2
2020-Jan-17 03:39 236 11.7
2020-Jan-17 03:29 236 11.7
2020-Jan-17 03:19 236 11.7
2020-Jan-17 03:09 236 11.1
2020-Jan-17 02:59 236 11.1
2020-Jan-17 02:49 236 11.7
2020-Jan-17 02:39 299 12.2
2020-Jan-17 02:29 299 11.7
2020-Jan-17 02:19 300 11.7
2020-Jan-17 02:09 300 11.1
2020-Jan-17 01:59 299 10.6
2020-Jan-17 01:49 299 10.0
2020-Jan-17 01:39 299 9.4
2020-Jan-17 01:29 300 10.6
2020-Jan-17 01:19 299 11.1
2020-Jan-17 01:09 300 11.1
2020-Jan-17 00:59 300 11.1
2020-Jan-17 00:49 300 11.1
2020-Jan-17 00:39 299 11.7
2020-Jan-17 00:29 300 11.7
2020-Jan-17 00:19 239 11.7
2020-Jan-17 00:09 238 11.1
2020-Jan-16 23:59 239 11.7
2020-Jan-16 23:49 239 11.7
2020-Jan-16 23:39 238 12.2
2020-Jan-16 23:29 239 11.7
2020-Jan-16 23:19 239 11.7
2020-Jan-16 23:09 239 11.7
2020-Jan-16 22:59 239 11.7
2020-Jan-16 22:49 239 12.2
2020-Jan-16 22:39 239 11.7
2020-Jan-16 22:29 239 11.1
2020-Jan-16 22:19 238 11.1
2020-Jan-16 22:09 239 12.2
2020-Jan-16 21:59 238 12.2
2020-Jan-16 21:49 238 11.7
2020-Jan-16 21:39 239 11.1
2020-Jan-16 21:29 240 10.0
2020-Jan-16 21:19 240 10.0
2020-Jan-16 21:09 240 10.6
2020-Jan-16 20:59 240 11.1
2020-Jan-16 20:49 240 11.7
2020-Jan-16 20:39 240 11.1
2020-Jan-16 20:29 240 11.1
2020-Jan-16 20:19 240 10.6
2020-Jan-16 20:09 240 10.6
2020-Jan-16 19:59 240 10.0
2020-Jan-16 19:49 240 10.0
2020-Jan-16 19:39 240 10.0
2020-Jan-16 19:29 240 10.0
2020-Jan-16 19:19 240 10.0
2020-Jan-16 19:09 240 10.0
2020-Jan-16 18:59 240 10.0
2020-Jan-16 18:49 240 10.6
2020-Jan-16 18:39 263 11.7
2020-Jan-16 18:29 263 11.7
2020-Jan-16 18:19 263 11.7
2020-Jan-16 18:09 263 12.8
2020-Jan-16 17:59 263 12.8
2020-Jan-16 17:49 263 13.3
2020-Jan-16 17:39 263 13.3
2020-Jan-16 17:29 263 13.9
2020-Jan-16 17:19 263 13.9
2020-Jan-16 17:09 263 14.4
2020-Jan-16 16:59 263 14.4
2020-Jan-16 16:49 263 14.4
2020-Jan-16 16:39 260 15.0
2020-Jan-16 16:29 259 15.0
2020-Jan-16 16:19 268 15.0
2020-Jan-16 16:09 265 15.0
2020-Jan-16 15:59 265 15.6
2020-Jan-16 15:49 281 15.6
2020-Jan-16 15:39 271 15.6
2020-Jan-16 15:29 268 15.6
2020-Jan-16 15:19 276 15.6
2020-Jan-16 15:09 285 15.6
2020-Jan-16 14:59 280 15.6
2020-Jan-16 14:49 284 15.6
2020-Jan-16 14:39 277 15.6
2020-Jan-16 14:29 275 15.6
2020-Jan-16 14:19 283 15.6
2020-Jan-16 14:09 273 15.6
2020-Jan-16 13:59 288 15.6
2020-Jan-16 13:49 267 15.6
2020-Jan-16 13:39 265 15.6
2020-Jan-16 13:29 290 15.6
2020-Jan-16 13:19 256 15.6
2020-Jan-16 13:09 277 15.6
2020-Jan-16 12:59 288 15.6
2020-Jan-16 12:49 271 15.6
2020-Jan-16 12:39 255 15.6
2020-Jan-16 12:29 267 15.6
2020-Jan-16 12:19 265 15.6
2020-Jan-16 12:09 254 15.6
2020-Jan-16 11:59 256 15.6
2020-Jan-16 11:49 276 15.6
2020-Jan-16 11:39 289 15.6
2020-Jan-16 11:29 287 15.6
2020-Jan-16 11:19 262 15.6
2020-Jan-16 11:09 288 15.6
2020-Jan-16 10:59 277 15.6
2020-Jan-16 10:49 269 15.0
2020-Jan-16 10:39 268 15.0
2020-Jan-16 10:29 293 15.0
2020-Jan-16 10:19 319 15.0
2020-Jan-16 10:09 325 14.4
2020-Jan-16 09:59 326 13.9
2020-Jan-16 09:49 326 13.3
2020-Jan-16 09:39 326 12.2
2020-Jan-16 09:29 326 12.2
2020-Jan-16 09:19 326 11.1
2020-Jan-16 09:09 326 10.0
2020-Jan-16 08:59 325 9.4
2020-Jan-16 08:49 325 8.3
2020-Jan-16 08:39 325 7.8
2020-Jan-16 08:29 325 7.2
2020-Jan-16 08:19 325 6.7
2020-Jan-16 08:09 325 6.7
2020-Jan-16 07:59 325 6.7
2020-Jan-16 07:49 325 6.1
2020-Jan-16 07:39 324 6.1
2020-Jan-16 07:29 325 6.1
2020-Jan-16 07:19 325 6.1
2020-Jan-16 07:09 325 6.1
2020-Jan-16 06:59 325 7.2
2020-Jan-16 06:49 325 7.2
2020-Jan-16 06:39 325 6.7
2020-Jan-16 06:29 325 6.7
2020-Jan-16 06:19 325 6.1
2020-Jan-16 06:09 325 6.1
2020-Jan-16 05:59 325 6.1
2020-Jan-16 05:49 325 6.1
2020-Jan-16 05:39 325 6.1
2020-Jan-16 05:29 325 7.2
2020-Jan-16 05:19 325 7.8
2020-Jan-16 05:09 325 7.2
2020-Jan-16 04:59 325 7.2
2020-Jan-16 04:49 325 6.7
2020-Jan-16 04:39 325 7.2
2020-Jan-16 04:29 325 7.2
2020-Jan-16 04:19 325 6.7
2020-Jan-16 04:09 325 6.7
2020-Jan-16 03:59 325 7.2
2020-Jan-16 03:49 325 7.2
2020-Jan-16 03:39 325 7.2
2020-Jan-16 03:29 325 7.2
2020-Jan-16 03:19 325 7.2
2020-Jan-16 03:09 325 6.7
2020-Jan-16 02:59 325 6.7
2020-Jan-16 02:49 321 7.2
2020-Jan-16 02:39 321 6.7
2020-Jan-16 02:29 321 7.2
2020-Jan-16 02:19 321 7.2
2020-Jan-16 02:09 321 7.8
2020-Jan-16 01:59 321 8.3
2020-Jan-16 01:49 321 7.8
2020-Jan-16 01:39 321 7.2
2020-Jan-16 01:29 321 7.2
2020-Jan-16 01:19 321 7.8
2020-Jan-16 01:09 311 7.8
2020-Jan-16 00:59 311 7.2
2020-Jan-16 00:49 311 7.2
2020-Jan-16 00:39 311 7.2
2020-Jan-16 00:29 311 7.2
2020-Jan-16 00:19 311 7.2
2020-Jan-16 00:09 311 7.2
2020-Jan-15 23:59 311 7.8
2020-Jan-15 23:49 311 8.3
2020-Jan-15 23:39 311 7.8
2020-Jan-15 23:29 310 7.2
2020-Jan-15 23:19 311 7.2
2020-Jan-15 23:09 311 7.2
2020-Jan-15 22:59 311 7.2
2020-Jan-15 22:49 311 7.2
2020-Jan-15 22:39 311 7.2
2020-Jan-15 22:29 310 7.2
2020-Jan-15 22:19 311 7.2
2020-Jan-15 22:09 311 7.8
2020-Jan-15 21:59 248 7.8
2020-Jan-15 21:49 248 7.8
2020-Jan-15 21:39 248 7.2
2020-Jan-15 21:29 248 7.8
2020-Jan-15 21:19 248 7.2
2020-Jan-15 21:09 248 7.8
2020-Jan-15 20:59 248 7.8
2020-Jan-15 20:49 248 7.8
2020-Jan-15 20:39 248 7.8
2020-Jan-15 20:29 248 8.3
2020-Jan-15 20:19 248 8.3
2020-Jan-15 20:09 248 7.8
2020-Jan-15 19:59 248 7.8
2020-Jan-15 19:49 248 8.3
2020-Jan-15 19:39 248 8.3
2020-Jan-15 19:29 248 8.9
2020-Jan-15 19:19 248 8.9
2020-Jan-15 19:09 248 8.9